KW1M Weather Reports


Display with metric or nautical units.
time (UTC)temp
F
wind
direction
speed
MPH
gust
MPH
rain 1hr
in
rain 24hr
in
rain mn
in
humidity
%
barometer
mb
20260509033036 44 187 0.0 0.0 0.00 0.00 0.00 66 1014.0
20260509031535 45 177 0.0 1.0 0.00 0.00 0.00 65 1013.9
20260509030032 45 151 0.0 1.0 0.00 0.00 0.00 64 1013.8
20260509024529 45 169 0.0 1.0 0.00 0.00 0.00 64 1013.7
20260509023030 46 188 0.0 1.0 0.00 0.00 0.00 63 1013.6
20260509021534 46 188 0.0 1.0 0.00 0.00 0.00 63 1013.5
20260509020040 46 187 0.0 1.0 0.00 0.00 0.00 62 1013.2
20260509014524 46 187 0.0 3.0 0.00 0.00 0.00 60 1013.0
20260509013035 46 187 0.0 1.0 0.00 0.00 0.00 59 1012.7
20260509011520 46 101 0.0 5.0 0.00 0.00 0.00 59 1012.5
20260509010017 47 169 1.0 3.0 0.00 0.00 0.00 57 1012.2
20260509004519 47 49 0.0 3.0 0.00 0.00 0.00 56 1012.0
20260509003014 48 186 0.0 5.0 0.00 0.00 0.00 55 1011.8
20260509001512 48 187 0.0 3.0 0.00 0.00 0.00 53 1011.6
20260509000010 48 187 0.0 6.0 0.00 0.00 0.00 50 1011.2
20260508234508 49 187 0.0 0.0 0.00 0.00 0.00 50 1010.9
20260508233006 51 188 0.0 0.0 0.00 0.00 0.00 44 1010.7
20260508231504 52 188 0.0 0.0 0.00 0.00 0.00 43 1010.5
20260508230006 52 47 1.0 6.0 0.00 0.00 0.00 40 1010.5
20260508224504 52 187 0.0 1.0 0.00 0.00 0.00 40 1010.4
20260508223004 53 188 0.0 2.0 0.00 0.00 0.00 38 1010.3
20260508221503 54 187 0.0 2.0 0.00 0.00 0.00 39 1010.3
20260508220002 54 46 0.0 3.0 0.00 0.00 0.00 37 1010.2
20260508214506 55 44 0.0 3.0 0.00 0.00 0.00 37 1010.1
20260508213001 54 42 0.0 7.0 0.00 0.00 0.00 39 1010.0
20260508211600 54 187 0.0 5.0 0.00 0.00 0.00 37 1010.0
20260508210101 56 185 2.0 12.0 0.00 0.00 0.00 35 1009.9
20260508204601 56 186 2.0 9.0 0.00 0.00 0.00 34 1009.8
20260508203058 56 46 2.0 15.0 0.00 0.00 0.00 33 1009.7
20260508201556 57 187 4.0 11.0 0.00 0.00 0.00 34 1009.6
20260508200109 56 186 4.0 14.0 0.00 0.00 0.00 34 1009.5
20260508194553 57 187 2.0 14.0 0.00 0.00 0.00 34 1009.5
20260508193131 56 186 2.0 10.0 0.00 0.00 0.00 34 1009.5
20260508191550 55 187 2.0 11.0 0.00 0.00 0.00 35 1009.5
20260508190053 56 49 1.0 7.0 0.00 0.00 0.00 35 1009.5
20260508184551 55 93 2.0 9.0 0.00 0.00 0.00 35 1009.6
20260508183107 57 188 3.0 13.0 0.00 0.00 0.00 33 1009.6
20260508181559 57 174 3.0 12.0 0.00 0.00 0.00 33 1009.5
20260508180042 56 187 2.0 10.0 0.00 0.00 0.00 34 1009.5
20260508174541 55 58 2.0 11.0 0.00 0.00 0.00 36 1009.5
20260508173040 54 214 2.0 9.0 0.00 0.00 0.00 35 1009.5
20260508171539 54 214 3.0 11.0 0.00 0.00 0.00 33 1009.5
20260508170038 55 58 1.0 12.0 0.00 0.00 0.00 34 1009.5
20260508164539 56 44 3.0 13.0 0.00 0.00 0.00 33 1009.5
20260508163036 55 186 4.0 9.0 0.00 0.00 0.00 33 1009.4
20260508161536 56 187 2.0 12.0 0.00 0.00 0.00 34 1009.3
20260508160034 55 187 1.0 10.0 0.00 0.00 0.00 37 1009.5
20260508154546 54 47 1.0 11.0 0.00 0.00 0.00 38 1009.8
20260508153030 53 187 1.0 10.0 0.00 0.00 0.00 37 1009.8
20260508151529 53 165 1.0 11.0 0.00 0.00 0.00 37 1009.9
20260508150034 52 187 1.0 11.0 0.00 0.00 0.00 40 1010.0
20260508144526 53 188 2.0 13.0 0.00 0.00 0.00 38 1010.0
20260508143023 52 188 2.0 9.0 0.00 0.00 0.00 41 1010.1
20260508141529 51 188 2.0 12.0 0.00 0.00 0.00 45 1010.2
20260508140021 52 44 1.0 7.0 0.00 0.00 0.00 43 1010.3
20260508134517 50 187 1.0 6.0 0.00 0.00 0.00 46 1010.4
20260508133017 49 186 0.0 3.0 0.00 0.00 0.00 49 1010.5
20260508131512 49 187 1.0 8.0 0.00 0.00 0.00 51 1010.5
20260508130012 47 187 3.0 9.0 0.00 0.00 0.00 55 1010.6
20260508124507 46 166 2.0 5.0 0.00 0.00 0.00 60 1010.6
20260508123005 45 106 1.0 5.0 0.00 0.00 0.00 59 1010.6
20260508121559 44 187 0.0 3.0 0.00 0.00 0.00 63 1010.6
20260508120057 43 165 1.0 8.0 0.00 0.00 0.00 64 1010.5
20260508114555 42 188 0.0 3.0 0.00 0.00 0.00 66 1010.6
20260508113054 41 150 0.0 3.0 0.00 0.00 0.00 67 1010.5
20260508111553 40 188 0.0 2.0 0.00 0.00 0.00 69 1010.4
20260508110048 39 187 0.0 1.0 0.00 0.00 0.00 69 1010.2
20260508104547 39 188 0.0 1.0 0.00 0.00 0.00 68 1010.1
20260508103046 39 187 0.0 1.0 0.00 0.00 0.00 68 1009.8
20260508101545 38 188 0.0 0.0 0.00 0.00 0.00 69 1009.7
20260508100056 38 187 0.0 0.0 0.00 0.00 0.00 69 1009.6
20260508094542 38 187 0.0 0.0 0.00 0.00 0.00 69 1009.5
20260508093040 38 187 0.0 0.0 0.00 0.00 0.00 69 1009.4
20260508091542 38 187 0.0 0.0 0.00 0.00 0.00 69 1009.2
20260508090056 38 188 0.0 0.0 0.00 0.00 0.00 71 1009.2
20260508084541 38 187 0.0 0.0 0.00 0.00 0.00 68 1009.1
20260508083034 38 187 0.0 0.0 0.00 0.00 0.00 68 1009.0
20260508081540 38 187 0.0 0.0 0.00 0.00 0.00 67 1008.8
20260508080032 38 187 0.0 1.0 0.00 0.00 0.00 69 1008.6
20260508074532 39 58 0.0 0.0 0.00 0.00 0.00 68 1008.3
20260508073029 39 187 0.0 0.0 0.00 0.00 0.00 68 1008.5
20260508071528 39 187 0.0 0.0 0.00 0.00 0.00 66 1008.5
20260508070024 40 188 0.0 1.0 0.00 0.00 0.00 62 1008.6
20260508064523 40 170 0.0 0.0 0.00 0.00 0.00 62 1008.2
20260508063021 41 188 0.0 0.0 0.00 0.00 0.00 61 1008.4
20260508061521 41 187 0.0 2.0 0.00 0.00 0.00 62 1008.6
20260508060017 40 51 0.0 0.0 0.00 0.00 0.00 63 1008.7
20260508054514 41 51 0.0 0.0 0.00 0.00 0.00 63 1008.9
20260508053018 41 50 0.0 0.0 0.00 0.00 0.00 62 1008.9
20260508051510 42 50 0.0 0.0 0.00 0.00 0.00 61 1009.0
20260508050010 42 49 0.0 0.0 0.00 0.00 0.00 59 1009.2
20260508044507 42 50 0.0 0.0 0.00 0.00 0.00 58 1009.2
20260508043005 42 49 0.0 0.0 0.00 0.00 0.00 58 1009.2
20260508041504 43 50 0.0 0.0 0.00 0.00 0.00 57 1009.3
20260508040000 43 49 0.0 0.0 0.00 0.00 0.00 58 1009.3
20260508034601 43 49 0.0 0.0 0.00 0.04 0.00 58 1009.3